Location: The Saddle
(36.8333°N, 80.3417°W)
Time: 07:28:26
(UTC-05:00)

A-11 Canister half - Pass Details

Date: 18 December 2023
Orbit: 1512 x 1687 km, 47.2° (Epoch: 27 February)

Event Time Altitude Azimuth Distance (km) Brightness Sun altitude
Rises 23:33:19 0° 283° (WNW) 4,695 - -73.5°
Reaches altitude 10° 23:36:33 10° 289° (WNW) 3,731 - -73.9°
Maximum altitude 23:45:32 45° 1° (N) 2,059 - -74.8°
Drops below altitude 10° 23:54:52 10° 72° (ENE) 3,863 - -75.7°
Sets 23:58:16 0° 79° (ENE) 4,873 - -75.9°
